TimePST,TemperatureF,Dew PointF,Humidity,Sea Level PressureIn,VisibilityMPH,Wind Direction,Wind SpeedMPH,Gust SpeedMPH,PrecipitationIn,Events,Conditions,WindDirDegrees,DateUTC
12:32 AM,64.4,59.0,83,30.08,4.0,ESE,3.5,-,0.02,Rain,Light Rain,110,2012-11-17 08:32:00
12:42 AM,62.6,57.2,82,30.07,2.5,Calm,Calm,-,0.03,Rain,Light Rain,0,2012-11-17 08:42:00
12:53 AM,63.0,57.9,84,30.07,2.0,SE,4.6,-,0.05,Rain,Light Rain,140,2012-11-17 08:53:00
1:00 AM,62.6,59.0,88,30.07,1.5,Calm,Calm,-,0.03,Rain,Rain,0,2012-11-17 09:00:00
1:19 AM,62.6,57.2,82,30.07,2.0,SE,5.8,-,0.08,Rain,Light Rain,130,2012-11-17 09:19:00
1:27 AM,62.6,59.0,88,30.06,3.0,East,8.1,-,0.08,Rain,Light Rain,90,2012-11-17 09:27:00
1:38 AM,62.6,57.2,82,30.06,5.0,East,8.1,-,0.08,Rain,Light Rain,90,2012-11-17 09:38:00
1:53 AM,62.1,57.0,84,30.05,10.0,East,5.8,-,0.08,,Overcast,90,2012-11-17 09:53:00
2:53 AM,62.1,57.0,84,30.04,10.0,Calm,Calm,-,N/A,,Overcast,0,2012-11-17 10:53:00
3:53 AM,63.0,57.0,81,30.04,10.0,Calm,Calm,-,N/A,,Overcast,0,2012-11-17 11:53:00
4:53 AM,63.0,57.9,84,30.05,10.0,Calm,Calm,-,N/A,,Overcast,0,2012-11-17 12:53:00
5:53 AM,62.1,57.0,84,30.06,10.0,Calm,Calm,-,N/A,,Mostly Cloudy,0,2012-11-17 13:53:00
6:53 AM,62.1,57.0,84,30.08,10.0,Calm,Calm,-,N/A,,Scattered Clouds,0,2012-11-17 14:53:00
7:53 AM,64.0,57.0,78,30.09,10.0,South,5.8,-,N/A,,Overcast,170,2012-11-17 15:53:00
8:53 AM,66.9,57.9,73,30.10,10.0,Variable,3.5,-,N/A,,Mostly Cloudy,0,2012-11-17 16:53:00
9:53 AM,69.1,57.0,65,30.10,10.0,Calm,Calm,-,N/A,,Mostly Cloudy,0,2012-11-17 17:53:00
10:53 AM,71.1,57.0,61,30.09,10.0,South,6.9,-,N/A,,Mostly Cloudy,180,2012-11-17 18:53:00
11:53 AM,71.1,57.0,61,30.07,10.0,South,6.9,-,0.01,,Scattered Clouds,190,2012-11-17 19:53:00
12:53 PM,71.1,57.0,61,30.06,10.0,SSW,11.5,-,N/A,,Mostly Cloudy,210,2012-11-17 20:53:00
1:53 PM,70.0,57.0,63,30.04,10.0,South,10.4,-,N/A,,Mostly Cloudy,180,2012-11-17 21:53:00
2:53 PM,70.0,57.0,63,30.04,10.0,South,10.4,-,N/A,,Mostly Cloudy,190,2012-11-17 22:53:00
4:53 PM,66.9,57.9,73,30.05,10.0,South,6.9,-,N/A,,Mostly Cloudy,190,2012-11-18 00:53:00
5:11 PM,66.2,59.0,78,30.05,10.0,South,9.2,-,N/A,,Overcast,170,2012-11-18 01:11:00
5:30 PM,66.2,59.0,78,30.05,10.0,South,6.9,-,N/A,,Overcast,190,2012-11-18 01:30:00
5:46 PM,66.2,59.0,78,30.05,10.0,South,8.1,-,N/A,,Overcast,190,2012-11-18 01:46:00
5:53 PM,66.9,59.0,76,30.06,10.0,South,9.2,-,N/A,,Overcast,180,2012-11-18 01:53:00
6:35 PM,66.2,59.0,78,30.06,10.0,SSW,8.1,-,N/A,,Mostly Cloudy,200,2012-11-18 02:35:00
6:53 PM,64.9,57.9,78,30.07,10.0,South,5.8,-,N/A,,Mostly Cloudy,170,2012-11-18 02:53:00
7:53 PM,64.9,57.9,78,30.07,10.0,South,6.9,-,N/A,,Mostly Cloudy,190,2012-11-18 03:53:00
8:53 PM,66.0,57.0,73,30.08,10.0,Calm,Calm,-,N/A,,Mostly Cloudy,0,2012-11-18 04:53:00
9:53 PM,64.9,57.0,75,30.09,10.0,Calm,Calm,-,N/A,,Mostly Cloudy,0,2012-11-18 05:53:00
10:53 PM,64.9,57.0,75,30.09,10.0,SE,3.5,-,N/A,,Mostly Cloudy,130,2012-11-18 06:53:00
11:37 PM,64.4,57.2,77,30.10,10.0,Calm,Calm,-,N/A,,Overcast,0,2012-11-18 07:37:00
11:53 PM,64.9,57.9,78,30.10,10.0,West,3.5,-,N/A,,Overcast,260,2012-11-18 07:53:00